Location: Caltech
(34.1382°N, 118.1253°W)
Time: 11:59:18
(UTC-07:00)

Hamsat - Visible Passes

Search period start: 24 June 2017 00:00
Search period end: 04 July 2017 00:00
Orbit: 584 x 619 km, 97.7° (Epoch: 23 June)

Date Brightness Start Highest point End Pass type
(mag) Time Alt. Az. Time Alt. Az. Time Alt. Az.
24 Jun ? 05:08:07 10° N 05:12:13 63° WNW 05:16:20 10° SSW visible
25 Jun ? 03:46:37 10° ENE 03:47:57 11° E 03:49:17 10° ESE visible
26 Jun ? 03:57:10 10° NE 03:59:46 16° E 04:02:21 10° SE visible
27 Jun ? 04:08:17 10° NE 04:11:33 22° E 04:14:49 10° SSE visible
28 Jun ? 04:19:37 10° NE 04:23:19 30° E 04:27:01 10° SSE visible
29 Jun ? 04:31:05 10° NNE 04:35:04 43° E 04:39:03 10° S visible
30 Jun ? 04:42:40 10° NNE 04:46:48 61° E 04:50:56 10° S visible
01 Jul ? 04:54:19 10° NNE 04:58:30 87° E 05:02:43 10° SSW visible
02 Jul ? 05:06:03 10° N 05:10:12 66° WNW 05:14:22 10° SSW visible
03 Jul ? 03:44:45 10° ENE 03:45:55 11° E 03:47:07 10° ESE visible
